Flag for U.S.A. Weather past 2 weeks in Aurora, Colorado, U.S.A.

Now
39 °F

Fog.


Feels Like: 34 °F
Forecast: 37 / 47 °F
Wind: 8 mph from North

Location: Buckley Air Force Base

Current Time: Apr 27, 2015 at 11:21:38 AM

Latest Report: Apr 27, 2015 at 10:58 AM


Visibility: 5 mi

Pressure: 30.27 "Hg

Humidity: 100%

Dew point: 39 °F

Location of AuroraLocation

Historic Weather in Aurora — Graph

°F

Aurora temperature yesterday

Maximum temperature yesterday: 46 °F (at 12:58 AM)
Minimum temperature yesterday: 38 °F (at 11:58 PM)
Average temperature yesterday: 42 °F

Past Weeks' High & Low Weather Summary

 TemperatureHumidityPressure
High74 °F (Apr 14, 3:58 PM)100% (Apr 16, 7:58 AM)30.17 "Hg (Apr 16, 7:58 AM)
Low31 °F (Apr 20, 6:58 AM)9% (Apr 14, 1:58 PM)29.44 "Hg (Apr 15, 3:58 AM)
Average47 °F60%29.85 "Hg
* Reported Apr 12 6:58 AM — Apr 27 6:58 AM, Aurora, Weather by CustomWeather, © 2015

Note: Actual official high and low records may vary slightly from our data, if they occured in-between our weather recording intervals... More about our weather records

Advertising

Aurora weather history for previous 24 hours

 ConditionsComfort  
Time TempWeatherWind HumidityBarometerVisibility
6:58 AM
Mon, Apr 27
36 °FDrizzle. Fog.7 mph100%30.17 "Hg4 mi
5:58 AM37 °FDrizzle. Fog.8 mph100%30.14 "Hg5 mi
5:00 AM37 °FDrizzle. Low clouds.9 mph100%30.14 "Hg8 mi
4:58 AM38 °FLow clouds.9 mph100%30.11 "Hg9 mi
3:58 AM38 °FLight rain. Fog.5 mph100%30.10 "Hg5 mi
2:58 AM38 °FLight rain. Fog.8 mph100%30.07 "Hg2 mi
1:58 AM38 °FMostly cloudy.5 mph100%30.08 "Hg10 mi
1:50 AM37 °FOvercast.5 mph100%30.11 "Hg10 mi
12:58 AM37 °FRain. Mostly cloudy.8 mph100%30.09 "Hg9 mi
11:58 PM
Sun, Apr 26
38 °FLight rain. Low clouds.10 mph100%30.08 "Hg5 mi
10:58 PM39 °FLight rain. Fog.7 mph100%30.04 "Hg4 mi
10:51 PM39 °FLight rain. Fog.7 mph100%30.08 "Hg4 mi
9:58 PM40 °FLight rain. Mostly cloudy.9 mph100%30.03 "Hg3 mi
8:58 PM40 °FDrizzle. Fog.10 mph100%30.00 "Hg3 mi
7:58 PM41 °FFog.13 mph100%29.97 "Hg5 mi
6:58 PM41 °FFog.10 mph100%29.94 "Hg5 mi
5:58 PM41 °FDrizzle. Fog.12 mph100%29.91 "Hg3 mi
4:58 PM43 °FDrizzle. Low clouds.13 mph100%29.86 "Hg7 mi
3:58 PM43 °FLow clouds.15 mph100%29.83 "Hg7 mi
2:58 PM44 °FLight rain. Low clouds.15 mph100%29.82 "Hg10 mi
1:58 PM43 °FLight rain. Mostly cloudy.10 mph99%29.81 "Hg6 mi
12:58 PM42 °FLight rain. Mostly cloudy.14 mph100%29.80 "Hg6 mi
11:58 AM41 °FLight rain. Fog.15 mph100%29.81 "Hg5 mi
Weather by CustomWeather, © 2015

See weather overviewHow to use our weather pages